This is the latest recevied weather packets stored in our database for station/object KBTL-WX. If no packets are shown the sender has not sent any weather packets the latest 10 day(s).
| Time | Temp. | Humidity | Pressure | Rain* | Wind** | Luminosity | Snow |
|---|---|---|---|---|---|---|---|
| 1777317315 | 21.11° C | 53% | 976.7 hPa | 0 mm | - | - | - |
| 1777316436 | 21.67° C | 53% | 976.7 hPa | 0 mm | - | - | - |
| 1777315515 | 21.11° C | 52% | 980.6 hPa | 0 mm | - | - | - |
| 1777314626 | 20.56° C | 49% | 978.8 hPa | 0 mm | - | - | - |
| 1777313714 | 21.67° C | 49% | 978.8 hPa | 0 mm | - | - | - |
| 1777312836 | 21.11° C | 49% | 978.8 hPa | 0 mm | - | - | - |
| 1777311914 | 21.11° C | 53% | 981 hPa | 0 mm | - | - | - |
| 1777311031 | 20.56° C | 55% | 980.7 hPa | 0 mm | - | - | - |
| 1777310114 | 20.56° C | 55% | 980.6 hPa | 0 mm | - | - | - |
| 1777309233 | 20° C | 55% | 980.6 hPa | 0 mm | - | - | - |
| 1777308312 | 19.44° C | 59% | 981.5 hPa | 0 mm | - | - | - |
| 1777307431 | 19.44° C | 58% | 981.1 hPa | 0 mm | - | - | - |
| 1777306514 | 18.33° C | 58% | 981.1 hPa | 0 mm | - | - | - |
| 1777305637 | 17.78° C | 58% | 981.1 hPa | 0 mm | - | - | - |
| 1777304713 | 17.78° C | 63% | 981.7 hPa | 0 mm | - | - | - |
| 1777303826 | 17.22° C | 61% | 981.3 hPa | 0 mm | - | - | - |
| 1777302913 | 16.11° C | 61% | 981.2 hPa | 0 mm | - | - | - |
| 1777302031 | 15.56° C | 61% | 981.2 hPa | 0 mm | - | - | - |
| 1777301113 | 15° C | 65% | 981.6 hPa | 0 mm | - | - | - |
| 1777300232 | 14.44° C | 65% | 982.3 hPa | 0 mm | - | - | - |
| 1777299313 | 14.44° C | 65% | 982.3 hPa | 0 mm | - | - | - |
| 1777298439 | 13.89° C | 65% | 982.3 hPa | 0 mm | - | - | - |
| 1777297513 | 13.33° C | 75% | 983.2 hPa | 0 mm | - | - | - |
| 1777296630 | 13.33° C | 75% | 983.2 hPa | 0 mm | - | - | - |
| 1777295713 | 12.22° C | 75% | 983.2 hPa | 0 mm | - | - | - |
* Rain latest hour (hover to see other rain measurements)
** Current wind speed in m/s (hover to see current wind gust speed)